FDX1462 ZBYN-ZLDH

Flight info

Callsign FDX1462
Flight time N/A
Altitude 30100
Route OMKAK7X OMKAK B215 NIRUV W199 ALGOT V67 JSG W619 BILDA W112 TODOD TODOD9
Aircraft B722/M-ABDFGHIKLRVWY/LB1

Departure

Time N/A
Airport Taiyuan Wusu International Airport (ZBYN)

Arrival

Time 2026-04-30 05:26
Airport Dunhuang Mogao International Airport (ZLDH)
Time Latitude Longitude Altitude Speed Heading
2026-04-30 03:56 38.32241 106.73437 30001 ft 449 kts 277°
2026-04-30 03:56 38.32842 106.65515 30004 ft 449 kts 277°
2026-04-30 03:57 38.33438 106.57593 30000 ft 450 kts 277°
2026-04-30 03:57 38.34028 106.49666 29997 ft 449 kts 277°
2026-04-30 03:58 38.34671 106.41807 30001 ft 448 kts 282°
2026-04-30 03:58 38.36580 106.34282 30015 ft 447 kts 292°
2026-04-30 03:59 38.38954 106.26975 30020 ft 446 kts 290°
2026-04-30 03:59 38.41060 106.19532 30027 ft 446 kts 291°
2026-04-30 04:00 38.43331 106.12172 30032 ft 446 kts 291°
2026-04-30 04:00 38.45489 106.04767 30038 ft 446 kts 291°
2026-04-30 04:01 38.47707 105.97379 30030 ft 445 kts 291°
2026-04-30 04:01 38.49883 105.89980 30026 ft 445 kts 290°
2026-04-30 04:02 38.52070 105.82589 30018 ft 444 kts 290°
2026-04-30 04:02 38.54243 105.75195 30009 ft 445 kts 290°
2026-04-30 04:03 38.56417 105.67797 30011 ft 445 kts 290°
2026-04-30 04:03 38.58585 105.60385 30003 ft 445 kts 290°
2026-04-30 04:04 38.60749 105.52976 29988 ft 445 kts 290°
2026-04-30 04:04 38.62908 105.45556 29983 ft 445 kts 290°
2026-04-30 04:05 38.65060 105.38141 29971 ft 445 kts 290°
2026-04-30 04:05 38.67209 105.30720 29973 ft 444 kts 290°
2026-04-30 04:06 38.69351 105.23296 29973 ft 445 kts 290°
2026-04-30 04:06 38.71490 105.15866 29970 ft 445 kts 290°
2026-04-30 04:07 38.73603 105.08424 29975 ft 445 kts 289°
2026-04-30 04:08 38.75834 104.96893 29985 ft 445 kts 285°
2026-04-30 04:08 38.77641 104.89323 29978 ft 444 kts 291°
2026-04-30 04:09 38.79718 104.83308 29978 ft 444 kts 294°
2026-04-30 04:09 38.82352 104.74735 29975 ft 445 kts 290°
2026-04-30 04:10 38.84703 104.67393 29975 ft 445 kts 292°
2026-04-30 04:10 38.86633 104.61220 29972 ft 445 kts 291°
2026-04-30 04:11 38.88921 104.53843 29970 ft 445 kts 291°
2026-04-30 04:11 38.91233 104.46477 29972 ft 445 kts 291°
2026-04-30 04:12 38.93516 104.39091 29970 ft 445 kts 291°
2026-04-30 04:12 38.95767 104.31859 29961 ft 446 kts 291°
2026-04-30 04:13 38.98050 104.24457 29959 ft 446 kts 291°
2026-04-30 04:13 39.00323 104.17102 29956 ft 446 kts 291°
2026-04-30 04:14 39.02602 104.09682 29959 ft 446 kts 291°
2026-04-30 04:14 39.04880 104.02257 29952 ft 446 kts 291°
2026-04-30 04:15 39.07153 103.94829 29952 ft 446 kts 291°
2026-04-30 04:15 39.09423 103.87385 29955 ft 447 kts 291°
2026-04-30 04:16 39.11689 103.79940 29954 ft 447 kts 290°
2026-04-30 04:16 39.13951 103.72483 29956 ft 447 kts 290°
2026-04-30 04:17 39.16210 103.65017 29953 ft 447 kts 290°
2026-04-30 04:17 39.18467 103.57537 29950 ft 448 kts 290°
2026-04-30 04:18 39.20720 103.50050 29954 ft 448 kts 290°
2026-04-30 04:18 39.22969 103.42554 29952 ft 449 kts 290°
2026-04-30 04:19 39.25218 103.35041 29955 ft 449 kts 290°
2026-04-30 04:19 39.27462 103.27518 29952 ft 450 kts 290°
2026-04-30 04:20 39.29705 103.19980 29955 ft 450 kts 290°
2026-04-30 04:20 39.31943 103.12437 29952 ft 450 kts 290°
2026-04-30 04:21 39.34177 103.04887 29957 ft 450 kts 290°
2026-04-30 04:21 39.36408 102.97320 29955 ft 451 kts 290°
2026-04-30 04:22 39.38613 102.89733 29958 ft 451 kts 290°
2026-04-30 04:22 39.40822 102.82143 29954 ft 451 kts 290°
2026-04-30 04:23 39.42647 102.74402 29955 ft 451 kts 281°
2026-04-30 04:23 39.43424 102.66335 29956 ft 452 kts 277°
2026-04-30 04:24 39.44369 102.58299 29951 ft 452 kts 281°
2026-04-30 04:24 39.45288 102.50247 29952 ft 453 kts 278°
2026-04-30 04:25 39.46177 102.42184 29944 ft 452 kts 279°
2026-04-30 04:25 39.47095 102.34172 29940 ft 454 kts 278°
2026-04-30 04:26 39.47975 102.26090 29939 ft 453 kts 279°
2026-04-30 04:26 39.48884 102.18002 29936 ft 454 kts 278°
2026-04-30 04:27 39.49760 102.09903 29932 ft 454 kts 279°
2026-04-30 04:27 39.50653 102.01796 29927 ft 455 kts 279°
2026-04-30 04:28 39.51526 101.93677 29926 ft 455 kts 278°
2026-04-30 04:28 39.52405 101.85546 29927 ft 457 kts 278°
2026-04-30 04:29 39.53273 101.77397 29922 ft 457 kts 278°
2026-04-30 04:29 39.54140 101.69239 29925 ft 457 kts 278°
2026-04-30 04:30 39.55000 101.61074 29931 ft 457 kts 278°
2026-04-30 04:30 39.55857 101.52894 29937 ft 459 kts 278°
2026-04-30 04:31 39.56708 101.44710 29938 ft 458 kts 278°
2026-04-30 04:31 39.57552 101.36520 29941 ft 459 kts 278°
2026-04-30 04:32 39.58391 101.28370 29928 ft 444 kts 276°
2026-04-30 04:32 39.59191 101.20469 29940 ft 443 kts 276°
2026-04-30 04:33 39.59989 101.12590 29945 ft 444 kts 276°
2026-04-30 04:33 39.60784 101.04670 29942 ft 443 kts 276°
2026-04-30 04:34 39.61574 100.96740 29953 ft 443 kts 276°
2026-04-30 04:34 39.62358 100.88824 29964 ft 443 kts 275°
2026-04-30 04:35 39.63137 100.80893 29967 ft 443 kts 275°
2026-04-30 04:35 39.63910 100.72973 29974 ft 442 kts 275°
2026-04-30 04:36 39.64677 100.65058 29980 ft 442 kts 275°
2026-04-30 04:36 39.65439 100.57137 29981 ft 442 kts 275°
2026-04-30 04:37 39.66194 100.49223 29990 ft 442 kts 275°
2026-04-30 04:37 39.66944 100.41313 29993 ft 442 kts 275°
2026-04-30 04:38 39.67689 100.33401 29995 ft 441 kts 275°
2026-04-30 04:38 39.68426 100.25495 30000 ft 441 kts 275°
2026-04-30 04:39 39.69160 100.17592 29995 ft 441 kts 275°
2026-04-30 04:39 39.69885 100.09693 30001 ft 440 kts 275°
2026-04-30 04:40 39.70607 100.01802 30010 ft 440 kts 275°
2026-04-30 04:40 39.71321 99.93904 30011 ft 440 kts 275°
2026-04-30 04:41 39.72031 99.86011 30013 ft 440 kts 275°
2026-04-30 04:41 39.72735 99.78116 30017 ft 440 kts 274°
2026-04-30 04:42 39.73435 99.70212 30013 ft 440 kts 274°
2026-04-30 04:42 39.74128 99.62319 30013 ft 440 kts 274°
2026-04-30 04:43 39.74816 99.54423 30020 ft 440 kts 274°
2026-04-30 04:43 39.75498 99.46529 30012 ft 440 kts 274°
2026-04-30 04:44 39.76176 99.38628 30021 ft 440 kts 274°
2026-04-30 04:44 39.76847 99.30733 30014 ft 439 kts 274°
2026-04-30 04:45 39.77513 99.22835 30017 ft 439 kts 274°
2026-04-30 04:45 39.78173 99.14940 30017 ft 439 kts 274°
2026-04-30 04:46 39.78828 99.07047 30018 ft 439 kts 274°
2026-04-30 04:46 39.79478 98.99144 30020 ft 439 kts 274°
2026-04-30 04:47 39.80123 98.91243 30023 ft 439 kts 274°
2026-04-30 04:47 39.80757 98.83397 30022 ft 439 kts 274°
2026-04-30 04:48 39.81391 98.75492 30024 ft 439 kts 274°
2026-04-30 04:48 39.82019 98.67586 30024 ft 439 kts 273°
2026-04-30 04:49 39.82642 98.59685 30024 ft 439 kts 273°
2026-04-30 04:49 39.83260 98.51774 30025 ft 439 kts 273°
2026-04-30 04:50 39.83872 98.43868 30028 ft 439 kts 273°
2026-04-30 04:50 39.84400 98.35961 30028 ft 437 kts 268°
2026-04-30 04:51 39.83713 98.28124 30034 ft 436 kts 258°
2026-04-30 04:51 39.82657 98.20360 30041 ft 436 kts 261°
2026-04-30 04:52 39.81841 98.12540 30040 ft 436 kts 260°
2026-04-30 04:52 39.80855 98.04758 30046 ft 436 kts 261°
2026-04-30 04:53 39.79969 97.96952 30052 ft 437 kts 260°
2026-04-30 04:53 39.79492 97.93053 29923 ft 439 kts 260°
2026-04-30 04:53 39.79172 97.90462 29713 ft 437 kts 260°
2026-04-30 04:53 39.78549 97.85261 29182 ft 433 kts 260°
2026-04-30 04:54 39.78094 97.81405 28694 ft 431 kts 260°
2026-04-30 04:54 39.77630 97.77571 28177 ft 428 kts 260°
2026-04-30 04:54 39.77163 97.73763 27634 ft 425 kts 260°
2026-04-30 04:54 39.76702 97.69972 27084 ft 423 kts 260°
2026-04-30 04:55 39.76247 97.66200 26525 ft 422 kts 260°
2026-04-30 04:55 39.75943 97.63710 26153 ft 420 kts 260°
2026-04-30 04:55 39.75330 97.58714 25410 ft 417 kts 260°
2026-04-30 04:55 39.74879 97.55050 24853 ft 416 kts 260°
2026-04-30 04:56 39.74423 97.51343 24303 ft 414 kts 260°
2026-04-30 04:56 39.73968 97.47659 23812 ft 412 kts 260°
2026-04-30 04:56 39.73512 97.43980 23480 ft 412 kts 260°
2026-04-30 04:56 39.73059 97.40316 23104 ft 411 kts 260°
2026-04-30 04:57 39.72603 97.36662 22854 ft 409 kts 260°
2026-04-30 04:57 39.72294 97.34201 22670 ft 409 kts 260°
2026-04-30 04:57 39.71693 97.29383 22322 ft 407 kts 260°
2026-04-30 04:57 39.71386 97.26927 22153 ft 407 kts 260°
2026-04-30 04:58 39.70933 97.23307 21888 ft 406 kts 260°
2026-04-30 04:58 39.70478 97.19699 21635 ft 404 kts 260°
2026-04-30 04:58 39.70022 97.16102 21379 ft 403 kts 260°
2026-04-30 04:58 39.69421 97.11351 21052 ft 403 kts 260°
2026-04-30 04:59 39.69119 97.08977 20878 ft 402 kts 260°
2026-04-30 04:59 39.68657 97.05359 20640 ft 401 kts 260°
2026-04-30 04:59 39.68209 97.01841 20405 ft 400 kts 260°
2026-04-30 04:59 39.67754 96.98280 20155 ft 399 kts 260°
2026-04-30 05:00 39.67298 96.94729 19914 ft 398 kts 260°
2026-04-30 05:00 39.66843 96.91194 19680 ft 398 kts 260°
2026-04-30 05:00 39.66386 96.87635 19450 ft 397 kts 260°
2026-04-30 05:00 39.65927 96.84091 19206 ft 397 kts 260°
2026-04-30 05:01 39.65474 96.80600 18978 ft 383 kts 260°
2026-04-30 05:01 39.65043 96.77275 18752 ft 364 kts 260°
2026-04-30 05:01 39.64633 96.74112 18517 ft 348 kts 260°
2026-04-30 05:01 39.64233 96.71046 18274 ft 342 kts 260°
2026-04-30 05:02 39.63835 96.68007 18001 ft 343 kts 260°
2026-04-30 05:02 39.63478 96.64953 17735 ft 342 kts 265°
2026-04-30 05:02 39.63642 96.61871 17480 ft 345 kts 280°
2026-04-30 05:02 39.64392 96.58921 17222 ft 347 kts 291°
2026-04-30 05:03 39.65458 96.56114 16976 ft 348 kts 297°
2026-04-30 05:03 39.66671 96.53405 16730 ft 347 kts 297°
2026-04-30 05:03 39.67826 96.50658 16483 ft 345 kts 295°
2026-04-30 05:03 39.68878 96.47918 16229 ft 334 kts 294°
2026-04-30 05:04 39.69924 96.45245 15979 ft 332 kts 295°
2026-04-30 05:04 39.71004 96.42599 15726 ft 332 kts 295°
2026-04-30 05:04 39.72079 96.39954 15711 ft 331 kts 295°
2026-04-30 05:04 39.73139 96.37294 15712 ft 332 kts 295°
2026-04-30 05:05 39.74199 96.34630 15711 ft 332 kts 295°
2026-04-30 05:05 39.75268 96.31964 15713 ft 332 kts 295°
2026-04-30 05:05 39.76337 96.29299 15707 ft 332 kts 295°
2026-04-30 05:06 39.78463 96.23963 15712 ft 332 kts 295°
2026-04-30 05:06 39.79527 96.21302 15711 ft 332 kts 295°
2026-04-30 05:06 39.80578 96.18667 15708 ft 332 kts 295°
2026-04-30 05:06 39.81639 96.15998 15706 ft 332 kts 295°
2026-04-30 05:07 39.82712 96.13295 15704 ft 332 kts 295°
2026-04-30 05:07 39.83756 96.10664 15699 ft 332 kts 295°
2026-04-30 05:07 39.84815 96.07997 15700 ft 332 kts 295°
2026-04-30 05:07 39.85892 96.05291 15698 ft 332 kts 295°
2026-04-30 05:08 39.86933 96.02661 15697 ft 332 kts 295°
2026-04-30 05:08 39.87987 95.99994 15697 ft 331 kts 295°
2026-04-30 05:08 39.89043 95.97325 15694 ft 332 kts 295°
2026-04-30 05:08 39.90111 95.94626 15696 ft 330 kts 295°
2026-04-30 05:09 39.91148 95.92000 15691 ft 331 kts 295°
2026-04-30 05:09 39.92199 95.89335 15690 ft 330 kts 295°
2026-04-30 05:09 39.93248 95.86672 15688 ft 330 kts 295°
2026-04-30 05:09 39.94310 95.83975 15687 ft 330 kts 295°
2026-04-30 05:10 39.95345 95.81347 15686 ft 330 kts 295°
2026-04-30 05:10 39.96388 95.78688 15689 ft 329 kts 295°
2026-04-30 05:10 39.97406 95.76009 15684 ft 329 kts 294°
2026-04-30 05:10 39.98388 95.73312 15683 ft 329 kts 293°
2026-04-30 05:11 39.99371 95.70619 15683 ft 329 kts 294°
2026-04-30 05:11 40.00369 95.67933 15684 ft 329 kts 294°
2026-04-30 05:11 40.01366 95.65249 15680 ft 329 kts 294°
2026-04-30 05:11 40.02358 95.62558 15680 ft 329 kts 293°
2026-04-30 05:12 40.03347 95.59867 15682 ft 328 kts 294°
2026-04-30 05:12 40.04336 95.57181 15677 ft 329 kts 294°
2026-04-30 05:12 40.05327 95.54492 15677 ft 328 kts 294°
2026-04-30 05:12 40.06314 95.51807 15679 ft 328 kts 294°
2026-04-30 05:13 40.07300 95.49121 15672 ft 328 kts 294°
2026-04-30 05:13 40.08448 95.46544 15669 ft 330 kts 303°
2026-04-30 05:13 40.09892 95.44256 15671 ft 331 kts 310°
2026-04-30 05:13 40.11511 95.42112 15669 ft 331 kts 312°
2026-04-30 05:14 40.13111 95.39899 15666 ft 330 kts 309°
2026-04-30 05:14 40.14589 95.37659 15663 ft 330 kts 308°
2026-04-30 05:14 40.16089 95.35399 15651 ft 329 kts 309°
2026-04-30 05:14 40.17628 95.33169 15286 ft 329 kts 309°
2026-04-30 05:15 40.19160 95.30961 14920 ft 326 kts 309°
2026-04-30 05:15 40.20660 95.28758 14564 ft 323 kts 309°
2026-04-30 05:15 40.22142 95.26568 14207 ft 320 kts 309°
2026-04-30 05:15 40.23616 95.24403 13877 ft 318 kts 309°
2026-04-30 05:16 40.25082 95.22256 13520 ft 315 kts 309°
2026-04-30 05:16 40.26533 95.20122 13153 ft 313 kts 309°
2026-04-30 05:16 40.27955 95.17973 12787 ft 310 kts 304°
2026-04-30 05:16 40.28964 95.15512 12423 ft 306 kts 288°
2026-04-30 05:17 40.29402 95.12814 12088 ft 302 kts 273°
2026-04-30 05:17 40.29371 95.10072 11733 ft 301 kts 265°
2026-04-30 05:17 40.29125 95.07382 11424 ft 293 kts 262°
2026-04-30 05:17 40.28858 95.04788 11193 ft 282 kts 263°
2026-04-30 05:18 40.28669 95.02253 10975 ft 278 kts 265°
2026-04-30 05:18 40.28498 94.99744 10755 ft 277 kts 264°
2026-04-30 05:18 40.28306 94.97232 10531 ft 277 kts 264°
2026-04-30 05:18 40.28102 94.94730 10315 ft 277 kts 264°
2026-04-30 05:19 40.27906 94.92231 10107 ft 276 kts 264°
2026-04-30 05:19 40.27713 94.89734 9890 ft 275 kts 264°
2026-04-30 05:19 40.27520 94.87251 9660 ft 274 kts 264°
2026-04-30 05:19 40.27322 94.84772 9423 ft 274 kts 264°
2026-04-30 05:20 40.27125 94.82292 9192 ft 273 kts 264°
2026-04-30 05:20 40.26930 94.79820 8964 ft 273 kts 264°
2026-04-30 05:20 40.26734 94.77349 8730 ft 273 kts 264°
2026-04-30 05:20 40.26539 94.74883 8508 ft 272 kts 264°
2026-04-30 05:21 40.26340 94.72421 8285 ft 271 kts 264°
2026-04-30 05:21 40.26143 94.69966 8053 ft 271 kts 264°
2026-04-30 05:21 40.25947 94.67514 7830 ft 270 kts 264°
2026-04-30 05:21 40.25752 94.65075 7582 ft 270 kts 264°
2026-04-30 05:22 40.25482 94.62664 7288 ft 265 kts 254°
2026-04-30 05:22 40.24668 94.60521 6999 ft 264 kts 235°
2026-04-30 05:22 40.23345 94.58856 6711 ft 266 kts 215°
2026-04-30 05:22 40.21652 94.57878 6430 ft 269 kts 195°
2026-04-30 05:23 40.19785 94.57724 6137 ft 272 kts 175°
2026-04-30 05:23 40.17971 94.58444 5871 ft 276 kts 154°
2026-04-30 05:23 40.16470 94.59947 5833 ft 272 kts 133°
2026-04-30 05:23 40.15500 94.61957 5867 ft 258 kts 113°
2026-04-30 05:24 40.15104 94.64191 5854 ft 247 kts 93°
2026-04-30 05:24 40.15144 94.66381 5818 ft 237 kts 87°
2026-04-30 05:24 40.15222 94.68471 5816 ft 222 kts 86°
2026-04-30 05:24 40.15293 94.70423 5804 ft 206 kts 86°
2026-04-30 05:25 40.15357 94.72302 5659 ft 213 kts 86°
2026-04-30 05:25 40.15483 94.74242 4955 ft 212 kts 81°
2026-04-30 05:25 40.15799 94.76123 4165 ft 209 kts 81°
2026-04-30 05:25 40.15921 94.77886 3942 ft 183 kts 85°
2026-04-30 05:26 40.16052 94.79458 3744 ft 167 kts 82°
2026-04-30 05:26 40.16160 94.80799 3714 ft 117 kts 84°
2026-04-30 05:26 40.16201 94.81394 3707 ft 12 kts 89°
2026-04-30 05:26 40.16226 94.81417 3707 ft 2 kts 302°
2026-04-30 05:27 40.16230 94.81391 3709 ft 7 kts 280°
2026-04-30 05:27 40.16264 94.81339 3707 ft 8 kts 336°
2026-04-30 05:27 40.16319 94.81331 3706 ft 8 kts 355°
2026-04-30 05:27 40.16380 94.81323 3704 ft 9 kts 354°
2026-04-30 05:28 40.16443 94.81333 3702 ft 9 kts 41°
2026-04-30 05:28 40.16459 94.81413 3704 ft 10 kts 84°
2026-04-30 05:28 40.16479 94.81502 3703 ft 11 kts 44°
2026-04-30 05:28 40.16542 94.81493 3711 ft 10 kts 305°
2026-04-30 05:29 40.16548 94.81405 3705 ft 1 kts 264°